Sturgeon Lake, MN

8:27 AM CST on December 07, 2016 (GMT -0600)
Moose Lake-Carlton County

Weather History for KMZH - February, 2014

Change the Weather History Date:

Friday, February 7, 2014

  Actual Average Record
Temperature  
Mean Temperature 2 °F -  
Max Temperature 14 °F 24 °F 52 °F (1987)
Min Temperature -11 °F -5 °F -34 °F (1972)
Degree Days  
Heating Degree Days 62    
Moisture  
Dew Point -11 °F    
Average Humidity 62    
Maximum Humidity 84    
Minimum Humidity 38    
Precipitation  
Precipitation 0.00 in - - ()
Sea Level Pressure  
Sea Level Pressure 30.02 in    
Wind  
Wind Speed 7 mph (SW)    
Max Wind Speed 17 mph    
Max Gust Speed 24 mph    
Visibility 10 miles    
Events Snow    
Averages and records for this station are not official NWS values.
T = Trace of Precipitation, MM = Missing Value Source: NWS Daily Summary

Daily Weather History Graph

Daily Weather History Graph

Search for Another Location

Airport or City:

Trip Planner

Search our weather history database for the weather conditions in past years. The results will help you decide how hot, cold, wet, or windy it might be!

Date:

Astronomy

Feb. 07, 2014 Rise Set
Actual Time 7:26 AM CST 5:24 PM CST
Civil Twilight 6:54 AM CST 5:56 PM CST
Nautical Twilight 6:19 AM CST 6:32 PM CST
Astronomical Twilight 5:44 AM CST 7:07 PM CST
Moon 11:32 AM CST 1:46 AM CST
Length of Visible Light 11h 01m
Length of Day
9h 58m
First Quarter, 59% of the Moon is Illuminated
Feb 7
First Quarter
Feb 14
Full
Feb 22
Last Quarter
Mar 1
New
Mar 8
First Quarter

Hourly Weather History & Observations

Time (CST) Temp. Windchill Dew Point Humidity Pressure Visibility Wind Dir Wind Speed Gust Speed Precip Events Conditions
12:08 AM -5.8 °F -19.9 °F -11.2 °F 77% 30.05 in 10.0 mi SW 6.9 mph - N/A   Clear
12:28 AM -5.8 °F -19.9 °F -11.2 °F 77% 30.04 in 10.0 mi SW 6.9 mph - N/A   Mostly Cloudy
12:49 AM -7.6 °F -22.1 °F -11.2 °F 84% 30.03 in 10.0 mi SW 6.9 mph - N/A   Scattered Clouds
1:08 AM -7.6 °F -20.6 °F -11.2 °F 84% 30.03 in 10.0 mi SW 5.8 mph - N/A   Clear
1:28 AM -7.6 °F -20.6 °F -13.0 °F 77% 30.02 in 10.0 mi SW 5.8 mph - N/A Snow Light Snow
1:48 AM -7.6 °F -20.6 °F -13.0 °F 77% 30.02 in 10.0 mi SW 5.8 mph - N/A   Clear
2:08 AM -7.6 °F -18.8 °F -13.0 °F 77% 30.02 in 10.0 mi SW 4.6 mph - N/A   Clear
2:28 AM -7.6 °F -18.8 °F -13.0 °F 77% 30.01 in 10.0 mi SW 4.6 mph - N/A   Scattered Clouds
2:48 AM -7.6 °F -18.8 °F -13.0 °F 77% 30.01 in 10.0 mi SW 4.6 mph - N/A   Scattered Clouds
3:08 AM -7.6 °F -18.8 °F -13.0 °F 77% 30.01 in 10.0 mi SW 4.6 mph - N/A   Clear
3:28 AM -9.4 °F -18.6 °F -14.8 °F 77% 30.01 in 10.0 mi SW 3.5 mph - N/A   Scattered Clouds
3:48 AM -9.4 °F -18.6 °F -16.6 °F 71% 30.01 in 10.0 mi SW 3.5 mph - N/A   Scattered Clouds
4:08 AM -9.4 °F -20.9 °F -14.8 °F 77% 30.00 in 10.0 mi SW 4.6 mph - N/A   Clear
4:28 AM -9.4 °F -20.9 °F -14.8 °F 77% 30.00 in 10.0 mi SW 4.6 mph - N/A   Clear
4:48 AM -9.4 °F -22.7 °F -14.8 °F 77% 30.00 in 10.0 mi SW 5.8 mph - N/A   Scattered Clouds
5:08 AM -9.4 °F -20.9 °F -14.8 °F 77% 30.00 in 10.0 mi SW 4.6 mph - N/A   Scattered Clouds
5:28 AM -9.4 °F -20.9 °F -16.6 °F 71% 30.00 in 10.0 mi SW 4.6 mph - N/A   Scattered Clouds
5:49 AM -9.4 °F -24.3 °F -14.8 °F 77% 30.00 in 10.0 mi SSW 6.9 mph - N/A   Scattered Clouds
6:08 AM -9.4 °F -22.7 °F -14.8 °F 77% 30.00 in 10.0 mi SW 5.8 mph - N/A   Scattered Clouds
6:28 AM -9.4 °F -20.9 °F -14.8 °F 77% 29.99 in 10.0 mi SW 4.6 mph - N/A   Scattered Clouds
6:49 AM -9.4 °F -24.3 °F -14.8 °F 77% 29.99 in 10.0 mi SSW 6.9 mph - N/A   Clear
7:08 AM -9.4 °F -22.7 °F -14.8 °F 77% 29.99 in 10.0 mi SW 5.8 mph - N/A   Clear
7:28 AM -9.4 °F -22.7 °F -14.8 °F 77% 29.99 in 10.0 mi SW 5.8 mph - N/A   Clear
7:48 AM -9.4 °F -20.9 °F -14.8 °F 77% 30.00 in 10.0 mi SSW 4.6 mph - N/A   Clear
8:08 AM -7.6 °F -20.6 °F -14.8 °F 71% 29.99 in 10.0 mi SSW 5.8 mph - N/A   Clear
8:28 AM -7.6 °F -20.6 °F -13.0 °F 77% 30.00 in 10.0 mi SW 5.8 mph - N/A   Clear
8:48 AM -5.8 °F -19.9 °F -11.2 °F 77% 29.99 in 10.0 mi SW 6.9 mph - N/A   Clear
9:08 AM -4.0 °F -19.0 °F -9.4 °F 78% 29.99 in 10.0 mi SW 8.1 mph - N/A   Clear
9:28 AM -4.0 °F -19.0 °F -9.4 °F 78% 30.00 in 10.0 mi SSW 8.1 mph - N/A   Clear
9:48 AM -2.2 °F -16.8 °F -7.6 °F 78% 30.00 in 10.0 mi SSW 8.1 mph - N/A   Clear
10:08 AM 1.4 °F -12.5 °F -7.6 °F 66% 30.00 in 10.0 mi SW 8.1 mph - N/A   Clear
10:28 AM 3.2 °F -13.9 °F -9.4 °F 56% 30.01 in 10.0 mi WSW 12.7 mph 16.1 mph N/A   Clear
10:48 AM 3.2 °F -13.9 °F -11.2 °F 51% 30.00 in 10.0 mi SW 12.7 mph - N/A   Clear
11:08 AM 5.0 °F -11.6 °F -9.4 °F 52% 30.00 in 10.0 mi SW 12.7 mph 17.3 mph N/A   Clear
11:28 AM 6.8 °F -9.3 °F -9.4 °F 48% 30.00 in 10.0 mi WSW 12.7 mph 20.7 mph N/A   Clear
11:49 AM 8.6 °F -6.3 °F -9.4 °F 44% 30.00 in 10.0 mi WSW 11.5 mph - N/A   Clear
12:08 PM 8.6 °F -7.7 °F -9.4 °F 44% 29.99 in 10.0 mi WSW 13.8 mph - N/A   Clear
12:29 PM 8.6 °F -8.3 °F -9.4 °F 44% 29.99 in 10.0 mi WSW 15.0 mph 21.9 mph N/A   Clear
12:48 PM 10.4 °F -4.8 °F -9.4 °F 41% 29.99 in 10.0 mi WSW 12.7 mph 18.4 mph N/A   Clear
1:08 PM 10.4 °F -4.1 °F -7.6 °F 44% 29.99 in 10.0 mi WSW 11.5 mph 21.9 mph N/A   Clear
1:28 PM 10.4 °F -6.6 °F -9.4 °F 41% 29.99 in 10.0 mi WSW 16.1 mph 23.0 mph N/A   Clear
1:49 PM 12.2 °F -2.5 °F -7.6 °F 41% 29.99 in 10.0 mi SW 12.7 mph - N/A   Clear
2:08 PM 12.2 °F -3.1 °F -7.6 °F 41% 29.99 in 10.0 mi WSW 13.8 mph - N/A   Clear
2:28 PM 12.2 °F -4.8 °F -7.6 °F 41% 29.99 in 10.0 mi SW 17.3 mph 24.2 mph N/A   Clear
2:48 PM 12.2 °F -4.8 °F -7.6 °F 41% 29.99 in 10.0 mi WSW 17.3 mph 20.7 mph N/A   Clear
3:08 PM 14.0 °F 0.5 °F -7.6 °F 38% 29.99 in 10.0 mi WSW 11.5 mph - N/A   Clear
3:28 PM 14.0 °F -1.4 °F -7.6 °F 38% 29.99 in 10.0 mi WSW 15.0 mph 20.7 mph N/A   Clear
3:49 PM 12.2 °F -2.5 °F -7.6 °F 41% 30.00 in 10.0 mi WSW 12.7 mph 21.9 mph N/A   Clear
4:08 PM 12.2 °F -3.1 °F -7.6 °F 41% 30.00 in 10.0 mi WSW 13.8 mph 23.0 mph N/A   Clear
4:28 PM 12.2 °F -2.5 °F -7.6 °F 41% 30.01 in 10.0 mi WSW 12.7 mph 17.3 mph N/A   Clear
4:48 PM 12.2 °F -2.5 °F -7.6 °F 41% 30.01 in 10.0 mi WSW 12.7 mph 19.6 mph N/A   Clear
5:08 PM 10.4 °F -4.8 °F -9.4 °F 41% 30.02 in 10.0 mi SW 12.7 mph 17.3 mph N/A   Clear
5:28 PM 10.4 °F -2.4 °F -9.4 °F 41% 30.02 in 10.0 mi WSW 9.2 mph - N/A   Clear
5:48 PM 8.6 °F -4.7 °F -9.4 °F 44% 30.03 in 10.0 mi SW 9.2 mph - N/A   Clear
6:09 PM 8.6 °F -3.7 °F -9.4 °F 44% 30.04 in 10.0 mi WSW 8.1 mph - N/A   Clear
6:28 PM 8.6 °F -3.7 °F -9.4 °F 44% 30.04 in 10.0 mi SW 8.1 mph - N/A   Clear
6:49 PM 5.0 °F -6.9 °F -9.4 °F 52% 30.05 in 10.0 mi SW 6.9 mph - N/A   Clear
7:08 PM 5.0 °F -5.6 °F -9.4 °F 52% 30.05 in 10.0 mi SW 5.8 mph - N/A   Clear
7:28 PM 5.0 °F -4.1 °F -9.4 °F 52% 30.05 in 10.0 mi SW 4.6 mph - N/A   Clear
7:48 PM 3.2 °F -6.2 °F -11.2 °F 51% 30.05 in 10.0 mi SSW 4.6 mph - N/A   Clear
8:08 PM 1.4 °F -9.9 °F -11.2 °F 56% 30.05 in 10.0 mi SSW 5.8 mph - N/A   Clear
8:28 PM 1.4 °F -8.3 °F -9.4 °F 61% 30.05 in 10.0 mi SW 4.6 mph - N/A   Clear
8:48 PM -0.4 °F -8.3 °F -11.2 °F 60% 30.06 in 10.0 mi SW 3.5 mph - N/A   Clear
9:08 PM -0.4 °F -8.3 °F -11.2 °F 60% 30.06 in 10.0 mi SW 3.5 mph - N/A   Clear
9:28 PM -2.2 °F - -11.2 °F 66% 30.07 in 10.0 mi Calm Calm - N/A   Clear
9:48 PM -4.0 °F - -11.2 °F 71% 30.07 in 10.0 mi Calm Calm - N/A   Clear
10:08 PM -4.0 °F -12.4 °F -11.2 °F 71% 30.06 in 10.0 mi SSW 3.5 mph - N/A   Clear
10:29 PM -5.8 °F - -13.0 °F 71% 30.07 in 10.0 mi Calm Calm - N/A   Clear
10:48 PM -5.8 °F - -13.0 °F 71% 30.08 in 10.0 mi Calm Calm - N/A   Clear
11:08 PM -9.4 °F - -14.8 °F 77% 30.08 in 10.0 mi Calm Calm - N/A   Clear
11:29 PM -9.4 °F - -14.8 °F 77% 30.08 in 10.0 mi Calm Calm - N/A   Clear
11:48 PM -11.2 °F - -16.6 °F 77% 30.08 in 10.0 mi Calm Calm - N/A   Scattered Clouds